DATA DISCLAIMER:,,
"Every reasonable effort has been made to assure the accuracy of these data.  However, Napa County RCD makes no warranty, representation, or guaranty ",,
"as to the content, sequence, accuracy, timeliness, or completeness of any of the data provided herein.  Napa County RCD explicitly disclaims any ",,
"representations and warranties, including, without limitation, the implied warranties of merchantability and fitness for a particular purpose.  Napa County ",,
"RCD assumes no liability for any errors, omissions, or inaccuracies in the information provided regardless of how caused.  Napa County RCD also assumes ",,
no liability for any decisions made or actions taken or not taken by the user of the data in reliance upon any information or data furnished hereunder.  ,,
"Because the data provided are not warranted to be up-to-date, the user should check with RCD staff for updated information.",,
,,
"To assist the Napa County RCD technical team in the maintenance of the data, users are requested to provide, to the address shown below, information ",,
"concerning any errors or discrepancies they find when using the data:  Napa County Resource Conservation District, (707) 252-4188, www.naparcd.org",,
,,
Date/Time (PST),GH (ft),Q (ft3/s)
12/6/2004 23:00,0.53,2.97
12/6/2004 23:15,0.54,3.12
12/6/2004 23:30,0.56,3.6
12/6/2004 23:45,0.56,3.52
12/7/2004 0:00,0.54,3.28
12/7/2004 0:15,0.55,3.3
12/7/2004 0:30,0.56,3.68
12/7/2004 0:45,0.56,3.56
12/7/2004 1:00,0.57,3.8
12/7/2004 1:15,0.61,4.68
12/7/2004 1:30,0.65,5.62
12/7/2004 1:45,0.79,11.1
12/7/2004 2:00,0.9,15.9
12/7/2004 2:15,0.97,18.9
12/7/2004 2:30,0.94,17.7
12/7/2004 2:45,0.88,15.1
12/7/2004 3:00,0.82,12.8
12/7/2004 3:15,0.78,10.9
12/7/2004 3:30,0.76,9.99
12/7/2004 3:45,0.9,15.8
12/7/2004 4:00,0.94,17.6
12/7/2004 4:15,0.92,16.9
12/7/2004 4:30,0.9,16.1
12/7/2004 4:45,0.89,15.7
12/7/2004 5:00,1.07,23.3
12/7/2004 5:15,1.65,66.1
12/7/2004 5:30,1.67,68.1
12/7/2004 5:45,1.63,64.2
12/7/2004 6:00,1.56,58.5
12/7/2004 6:15,1.49,53.1
12/7/2004 6:30,1.43,47.6
12/7/2004 6:45,1.37,42.5
12/7/2004 7:00,1.32,38
12/7/2004 7:15,1.25,32.2
12/7/2004 7:30,1.21,29.2
12/7/2004 7:45,1.18,28.1
12/7/2004 8:00,1.14,26.2
12/7/2004 8:15,1.11,25.1
12/7/2004 8:30,1.09,24.2
12/7/2004 8:45,1.07,23.2
12/7/2004 9:00,1.04,22.1
12/7/2004 9:15,1.01,20.7
12/7/2004 9:30,1,20.3
12/7/2004 9:45,1,20.4
12/7/2004 10:00,0.99,19.8
12/7/2004 10:15,0.97,19.1
12/7/2004 10:30,0.96,18.5
12/7/2004 10:45,0.95,18.1
12/7/2004 11:00,0.94,17.6
12/7/2004 11:15,0.93,17.1
12/7/2004 11:30,0.92,16.7
12/7/2004 11:45,0.9,16.2
12/7/2004 12:00,0.88,15.3
12/7/2004 12:15,0.87,14.7
12/7/2004 12:30,0.85,14
12/7/2004 12:45,0.85,13.7
12/7/2004 13:00,0.84,13.5
12/7/2004 13:15,0.83,13.2
12/7/2004 13:30,0.83,13
12/7/2004 13:45,0.82,12.5
12/7/2004 14:00,0.81,12.1
12/7/2004 14:15,0.8,11.7
12/7/2004 14:30,0.8,11.6
12/7/2004 14:45,0.79,11.5
12/7/2004 15:00,0.79,11.3
12/7/2004 15:15,0.79,11.2
12/7/2004 15:30,0.78,10.8
12/7/2004 15:45,0.78,10.8
12/7/2004 16:00,0.77,10.5
12/7/2004 16:15,0.77,10.5
12/7/2004 16:30,0.77,10.3
12/7/2004 16:45,0.76,10.2
12/7/2004 17:00,0.76,9.86
12/7/2004 17:15,0.74,9.26
12/7/2004 17:30,0.74,9
12/7/2004 17:45,0.73,8.83
12/7/2004 18:00,0.73,8.88
12/7/2004 18:15,0.73,8.96
12/7/2004 18:30,0.73,8.79
12/7/2004 18:45,0.74,9.09
12/7/2004 19:00,0.74,9.17
12/7/2004 19:15,0.74,9.05
12/7/2004 19:30,0.73,8.79
12/7/2004 19:45,0.73,8.83
12/7/2004 20:00,0.72,8.53
12/7/2004 20:15,0.72,8.49
12/7/2004 20:30,0.72,8.36
12/7/2004 20:45,0.72,8.19
12/7/2004 21:00,0.71,7.77
12/7/2004 21:15,0.71,7.85
12/7/2004 21:30,0.71,7.72
12/7/2004 21:45,0.71,7.94
12/7/2004 22:00,0.71,8.02
12/7/2004 22:15,0.72,8.15
12/7/2004 22:30,0.72,8.45
12/7/2004 22:45,0.74,9.17
12/7/2004 23:00,0.75,9.6
12/7/2004 23:15,0.76,10.2
12/7/2004 23:30,0.77,10.5
12/7/2004 23:45,0.78,11
12/8/2004 0:00,0.8,11.9
12/8/2004 0:15,0.84,13.6
12/8/2004 0:30,0.89,15.5
12/8/2004 0:45,0.94,17.8
12/8/2004 1:00,0.99,19.9
12/8/2004 1:15,1.01,20.8
12/8/2004 1:30,1.02,21.1
12/8/2004 1:45,1.04,22.1
12/8/2004 2:00,1.32,38.4
12/8/2004 2:15,3.11,240
12/8/2004 2:30,3.56,320
12/8/2004 2:45,3.71,349
12/8/2004 3:00,3.83,373
12/8/2004 3:15,3.88,383
12/8/2004 3:30,3.96,397
12/8/2004 3:45,3.93,391
12/8/2004 4:00,3.88,382
12/8/2004 4:15,3.77,361
12/8/2004 4:30,3.58,324
12/8/2004 4:45,3.4,290
12/8/2004 5:00,3.27,265
12/8/2004 5:15,3.18,249
12/8/2004 5:30,3.12,240
12/8/2004 5:45,3.11,240
12/8/2004 6:00,3.16,247
12/8/2004 6:15,3.33,276
12/8/2004 6:30,3.57,323
12/8/2004 6:45,3.78,364
12/8/2004 7:00,3.86,379
12/8/2004 7:15,3.95,396
12/8/2004 7:30,4.06,417
12/8/2004 7:45,4.18,441
12/8/2004 8:00,4.12,429
12/8/2004 8:15,4.03,412
12/8/2004 8:30,3.89,384
12/8/2004 8:45,3.66,339
12/8/2004 9:00,3.43,295
12/8/2004 9:15,3.19,251
12/8/2004 9:30,3,224
12/8/2004 9:45,2.85,204
12/8/2004 10:00,2.71,184
12/8/2004 10:15,2.58,165
12/8/2004 10:30,2.44,146
12/8/2004 10:45,2.34,131
12/8/2004 11:00,2.23,116
12/8/2004 11:15,2.13,108
12/8/2004 11:30,2.05,101
12/8/2004 11:45,1.97,93.8
12/8/2004 12:00,1.9,87.6
12/8/2004 12:15,1.84,82.4
12/8/2004 12:30,1.78,77.7
12/8/2004 12:45,1.73,73.1
12/8/2004 13:00,1.68,69.1
12/8/2004 13:15,1.64,65.4
12/8/2004 13:30,1.6,61.9
12/8/2004 13:45,1.57,59.6
12/8/2004 14:00,1.53,56.3
12/8/2004 14:15,1.5,53.3
12/8/2004 14:30,1.46,50.5
12/8/2004 14:45,1.43,47.6
12/8/2004 15:00,1.4,45.3
12/8/2004 15:15,1.38,43.6
12/8/2004 15:30,1.36,41.6
12/8/2004 15:45,1.34,40.3
12/8/2004 16:00,1.32,38.4
12/8/2004 16:15,1.3,36.6
12/8/2004 16:30,1.28,35.2
12/8/2004 16:45,1.27,33.6
12/8/2004 17:00,1.25,32.3
12/8/2004 17:15,1.24,31.2
12/8/2004 17:30,1.22,29.8
12/8/2004 17:45,1.21,29.1
12/8/2004 18:00,1.2,28.7
12/8/2004 18:15,1.18,28.1
12/8/2004 18:30,1.17,27.6
12/8/2004 18:45,1.15,26.9
12/8/2004 19:00,1.14,26.5
12/8/2004 19:15,1.13,26
12/8/2004 19:30,1.13,25.6
12/8/2004 19:45,1.12,25.2
12/8/2004 20:00,1.11,24.9
12/8/2004 20:15,1.09,24.3
12/8/2004 20:30,1.09,24
12/8/2004 20:45,1.08,23.8
12/8/2004 21:00,1.08,23.5
12/8/2004 21:15,1.07,23.5
12/8/2004 21:30,1.07,23.3
12/8/2004 21:45,1.07,23.4
12/8/2004 22:00,1.08,23.9
12/8/2004 22:15,1.09,24.1
12/8/2004 22:30,1.09,24.2
12/8/2004 22:45,1.1,24.6
12/8/2004 23:00,1.1,24.6
12/8/2004 23:15,1.11,24.9
12/8/2004 23:30,1.13,25.9
12/8/2004 23:45,1.17,27.7
12/9/2004 0:00,1.25,32.1
12/9/2004 0:15,1.28,34.9
12/9/2004 0:30,1.26,33.5
12/9/2004 0:45,1.24,31.3
12/9/2004 1:00,1.22,29.6
12/9/2004 1:15,1.19,28.6
12/9/2004 1:30,1.17,27.7
12/9/2004 1:45,1.15,26.8
12/9/2004 2:00,1.14,26.2
12/9/2004 2:15,1.12,25.6
12/9/2004 2:30,1.11,25
12/9/2004 2:45,1.09,24.2
12/9/2004 3:00,1.07,23.1
12/9/2004 3:15,1.06,22.8
12/9/2004 3:30,1.06,22.7
12/9/2004 3:45,1.05,22.4
12/9/2004 4:00,1.04,21.8
12/9/2004 4:15,1.03,21.5
12/9/2004 4:30,1.02,21.1
12/9/2004 4:45,1.01,20.5
12/9/2004 5:00,0.99,20
12/9/2004 5:15,0.99,19.9
12/9/2004 5:30,0.97,19.1
12/9/2004 5:45,0.96,18.6
12/9/2004 6:00,0.95,18.2
12/9/2004 6:15,0.94,17.8
12/9/2004 6:30,0.93,17.5
12/9/2004 6:45,0.93,17.4
12/9/2004 7:00,0.93,17.3
12/9/2004 7:15,0.92,16.9
12/9/2004 7:30,0.92,16.9
12/9/2004 7:45,0.92,16.7
12/9/2004 8:00,0.91,16.5
12/9/2004 8:15,0.91,16.5
12/9/2004 8:30,0.9,16
12/9/2004 8:45,0.89,15.6
12/9/2004 9:00,0.88,15.1
12/9/2004 9:15,0.88,15.4
12/9/2004 9:30,0.88,15.2
12/9/2004 9:45,0.88,15
12/9/2004 10:00,0.88,15.1
12/9/2004 10:15,0.88,15
12/9/2004 10:30,0.87,14.6
12/9/2004 10:45,0.87,14.6
12/9/2004 11:00,0.85,14
12/9/2004 11:15,0.85,13.9
12/9/2004 11:30,0.84,13.4
12/9/2004 11:45,0.83,13.1
12/9/2004 12:00,0.83,12.8
12/9/2004 12:15,0.82,12.6
12/9/2004 12:30,0.82,12.5
12/9/2004 12:45,0.81,12.2
12/9/2004 13:00,0.81,12.1
12/9/2004 13:15,0.81,12.1
12/9/2004 13:30,0.8,11.9
12/9/2004 13:45,0.81,12.2
12/9/2004 14:00,0.8,11.9
12/9/2004 14:15,0.8,11.6
12/9/2004 14:30,0.78,10.8
12/9/2004 14:45,0.8,11.9
12/9/2004 15:00,0.8,11.6
12/9/2004 15:15,0.8,11.7
12/9/2004 15:30,0.78,10.7
12/9/2004 15:45,0.77,10.4
12/9/2004 16:00,0.74,9.35
12/9/2004 16:15,0.75,9.47
12/9/2004 16:30,0.75,9.52
12/9/2004 16:45,0.75,9.43
12/9/2004 17:00,0.75,9.47
12/9/2004 17:15,0.75,9.56
12/9/2004 17:30,0.75,9.56
12/9/2004 17:45,0.75,9.52
12/9/2004 18:00,0.75,9.6
12/9/2004 18:15,0.75,9.43
12/9/2004 18:30,0.75,9.56
12/9/2004 18:45,0.75,9.47
12/9/2004 19:00,0.75,9.47
12/9/2004 19:15,0.74,9.13
12/9/2004 19:30,0.74,9.26
12/9/2004 19:45,0.74,9.39
12/9/2004 20:00,0.74,9
12/9/2004 20:15,0.73,8.92
12/9/2004 20:30,0.73,8.92
12/9/2004 20:45,0.73,8.88
12/9/2004 21:00,0.74,9.09
12/9/2004 21:15,0.73,8.92
12/9/2004 21:30,0.73,8.88
12/9/2004 21:45,0.71,8.02
12/9/2004 22:00,0.72,8.53
12/9/2004 22:15,0.73,8.66
12/9/2004 22:30,0.71,8.02
12/9/2004 22:45,0.71,8.07
12/9/2004 23:00,0.71,8.02
12/9/2004 23:15,0.71,7.85
12/9/2004 23:30,0.71,7.89
12/9/2004 23:45,0.71,7.89
12/10/2004 0:00,0.71,7.81
12/10/2004 0:15,0.7,7.6
12/10/2004 0:30,0.7,7.64
12/10/2004 0:45,0.7,7.38
12/10/2004 1:00,0.7,7.3
12/10/2004 1:15,0.7,7.55
12/10/2004 1:30,0.7,7.51
12/10/2004 1:45,0.7,7.68
12/10/2004 2:00,0.71,7.77
12/10/2004 2:15,0.7,7.51
12/10/2004 2:30,0.69,6.96
12/10/2004 2:45,0.68,6.61
12/10/2004 3:00,0.68,6.74
12/10/2004 3:15,0.68,6.83
12/10/2004 3:30,0.69,7.08
12/10/2004 3:45,0.69,6.96
12/10/2004 4:00,0.68,6.61
12/10/2004 4:15,0.69,6.87
12/10/2004 4:30,0.69,7.25
12/10/2004 4:45,0.7,7.43
12/10/2004 5:00,0.69,7.25
12/10/2004 5:15,0.69,7
12/10/2004 5:30,0.69,6.87
12/10/2004 5:45,0.69,6.87
12/10/2004 6:00,0.68,6.79
12/10/2004 6:15,0.68,6.57
12/10/2004 6:30,0.67,6.36
12/10/2004 6:45,0.66,6.01
12/10/2004 7:00,0.66,6.03
12/10/2004 7:15,0.67,6.18
12/10/2004 7:30,0.66,6.08
12/10/2004 7:45,0.66,5.89
12/10/2004 8:00,0.68,6.7
12/10/2004 8:15,0.67,6.4
12/10/2004 8:30,0.67,6.11
12/10/2004 8:45,0.66,5.98
12/10/2004 9:00,0.66,5.96
12/10/2004 9:15,0.65,5.81
12/10/2004 9:30,0.65,5.69
12/10/2004 9:45,0.65,5.71
12/10/2004 10:00,0.64,5.44
12/10/2004 10:15,0.63,5.17
12/10/2004 10:30,0.61,4.8
12/10/2004 10:45,0.6,4.45
12/10/2004 11:00,0.58,4.08
12/10/2004 11:15,0.58,3.9
12/10/2004 11:30,0.56,3.64
12/10/2004 11:45,0.58,3.9
12/10/2004 12:00,0.57,3.78
12/10/2004 12:15,0.58,3.94
12/10/2004 12:30,0.58,3.96
12/10/2004 12:45,0.59,4.15
12/10/2004 13:00,0.6,4.43
12/10/2004 13:15,0.61,4.65
12/10/2004 13:30,0.61,4.73
12/10/2004 13:45,0.61,4.7
12/10/2004 14:00,0.62,5.05
12/10/2004 14:15,0.63,5.22
12/10/2004 14:30,0.64,5.47
12/10/2004 14:45,0.64,5.49
12/10/2004 15:00,0.64,5.52
12/10/2004 15:15,0.64,5.37
12/10/2004 15:30,0.63,5.25
12/10/2004 15:45,0.63,5.2
12/10/2004 16:00,0.63,5.12
12/10/2004 16:15,0.62,5.03
12/10/2004 16:30,0.62,5.03
12/10/2004 16:45,0.62,5.05
12/10/2004 17:00,0.62,5.07
12/10/2004 17:15,0.62,5
12/10/2004 17:30,0.59,4.33
12/10/2004 17:45,0.59,4.23
12/10/2004 18:00,0.6,4.4
12/10/2004 18:15,0.6,4.6
12/10/2004 18:30,0.61,4.78
12/10/2004 18:45,0.61,4.85
12/10/2004 19:00,0.62,5
12/10/2004 19:15,0.61,4.85
12/10/2004 19:30,0.62,4.9
12/10/2004 19:45,0.62,4.93
12/10/2004 20:00,0.62,5.03
12/10/2004 20:15,0.62,5.03
12/10/2004 20:30,0.62,4.9
12/10/2004 20:45,0.61,4.85
12/10/2004 21:00,0.62,4.9
12/10/2004 21:15,0.62,4.88
12/10/2004 21:30,0.61,4.73
12/10/2004 21:45,0.61,4.68
12/10/2004 22:00,0.61,4.8
12/10/2004 22:15,0.61,4.78
12/10/2004 22:30,0.61,4.75
12/10/2004 22:45,0.6,4.53
12/10/2004 23:00,0.6,4.55
12/10/2004 23:15,0.6,4.48
12/10/2004 23:30,0.59,4.33
12/10/2004 23:45,0.59,4.13
12/11/2004 0:00,0.6,4.5
12/11/2004 0:15,0.6,4.53
12/11/2004 0:30,0.58,3.9
12/11/2004 0:45,0.6,4.43
12/11/2004 1:00,0.59,4.23
12/11/2004 1:15,0.59,4.15
12/11/2004 1:30,0.59,4.25
12/11/2004 1:45,0.59,4.35
12/11/2004 2:00,0.59,4.23
12/11/2004 2:15,0.59,4.15
12/11/2004 2:30,0.59,4.23
12/11/2004 2:45,0.59,4.18
12/11/2004 3:00,0.59,4.23
12/11/2004 3:15,0.59,4.13
12/11/2004 3:30,0.58,3.92
12/11/2004 3:45,0.59,4.13
12/11/2004 4:00,0.58,3.92
12/11/2004 4:15,0.58,4.08
12/11/2004 4:30,0.59,4.2
12/11/2004 4:45,0.58,3.98
12/11/2004 5:00,0.57,3.88
12/11/2004 5:15,0.56,3.5
12/11/2004 5:30,0.57,3.82
12/11/2004 5:45,0.58,4.08
12/11/2004 6:00,0.57,3.86
12/11/2004 6:15,0.58,3.94
12/11/2004 6:30,0.57,3.84
12/11/2004 6:45,0.57,3.8
12/11/2004 7:00,0.57,3.76
12/11/2004 7:15,0.57,3.72
12/11/2004 7:30,0.57,3.7
12/11/2004 7:45,0.56,3.66
12/11/2004 8:00,0.56,3.62
12/11/2004 8:15,0.56,3.58
12/11/2004 8:30,0.55,3.34
12/11/2004 8:45,0.54,3.28
12/11/2004 9:00,0.54,3.22
12/11/2004 9:15,0.54,3.16
12/11/2004 9:30,0.54,3.26
12/11/2004 9:45,0.54,3.2
12/11/2004 10:00,0.54,3.1
12/11/2004 10:15,0.54,3.12
12/11/2004 10:30,0.53,3
12/11/2004 10:45,0.53,2.92
12/11/2004 11:00,0.5,2.55
12/11/2004 11:15,0.5,2.48
12/11/2004 11:30,0.5,2.42
12/11/2004 11:45,0.51,2.58
12/11/2004 12:00,0.5,2.43
12/11/2004 12:15,0.49,2.32
12/11/2004 12:30,0.47,2
12/11/2004 12:45,0.48,2.18
12/11/2004 13:00,0.5,2.45
12/11/2004 13:15,0.54,3.1
12/11/2004 13:30,0.55,3.38
12/11/2004 13:45,0.55,3.46
12/11/2004 14:00,0.55,3.32
12/11/2004 14:15,0.55,3.36
12/11/2004 14:30,0.55,3.4
12/11/2004 14:45,0.55,3.36
12/11/2004 15:00,0.56,3.58
12/11/2004 15:15,0.57,3.8
12/11/2004 15:30,0.56,3.66
12/11/2004 15:45,0.56,3.58
12/11/2004 16:00,0.56,3.66
12/11/2004 16:15,0.56,3.56
12/11/2004 16:30,0.55,3.38
12/11/2004 16:45,0.53,3.06
12/11/2004 17:00,0.53,3.06
12/11/2004 17:15,0.55,3.3
12/11/2004 17:30,0.56,3.58
12/11/2004 17:45,0.57,3.72
12/11/2004 18:00,0.58,3.9
12/11/2004 18:15,0.57,3.84
12/11/2004 18:30,0.58,3.98
12/11/2004 18:45,0.58,3.98
12/11/2004 19:00,0.58,3.9
12/11/2004 19:15,0.58,3.98
12/11/2004 19:30,0.58,4
12/11/2004 19:45,0.59,4.13
12/11/2004 20:00,0.58,4.05
12/11/2004 20:15,0.58,3.98
12/11/2004 20:30,0.58,4
12/11/2004 20:45,0.59,4.13
12/11/2004 21:00,0.58,4.1
12/11/2004 21:15,0.59,4.18
12/11/2004 21:30,0.59,4.2
12/11/2004 21:45,0.58,4.1
12/11/2004 22:00,0.58,4.05
12/11/2004 22:15,0.58,4
12/11/2004 22:30,0.58,3.98
12/11/2004 22:45,0.58,3.94
12/11/2004 23:00,0.58,3.96
12/11/2004 23:15,0.58,3.9
12/11/2004 23:30,0.58,3.9
12/11/2004 23:45,0.58,3.9
12/12/2004 0:00,0.58,3.92
12/12/2004 0:15,0.57,3.78
12/12/2004 0:30,0.57,3.7
12/12/2004 0:45,0.57,3.78
12/12/2004 1:00,0.57,3.88
12/12/2004 1:15,0.58,3.9
12/12/2004 1:30,0.58,3.92
12/12/2004 1:45,0.57,3.88
12/12/2004 2:00,0.57,3.82
12/12/2004 2:15,0.57,3.76
12/12/2004 2:30,0.56,3.68
12/12/2004 2:45,0.56,3.58
12/12/2004 3:00,0.57,3.72
12/12/2004 3:15,0.57,3.82
12/12/2004 3:30,0.58,4.05
12/12/2004 3:45,0.57,3.88
12/12/2004 4:00,0.58,3.98
12/12/2004 4:15,0.58,3.92
12/12/2004 4:30,0.58,3.9
12/12/2004 4:45,0.57,3.78
12/12/2004 5:00,0.58,3.96
12/12/2004 5:15,0.58,3.98
12/12/2004 5:30,0.57,3.88
12/12/2004 5:45,0.58,3.94
12/12/2004 6:00,0.57,3.88
12/12/2004 6:15,0.58,3.9
12/12/2004 6:30,0.58,3.92
12/12/2004 6:45,0.58,3.94
12/12/2004 7:00,0.58,3.94
12/12/2004 7:15,0.58,3.96
12/12/2004 7:30,0.57,3.82
12/12/2004 7:45,0.57,3.7
12/12/2004 8:00,0.57,3.72
12/12/2004 8:15,0.57,3.7
12/12/2004 8:30,0.57,3.7
12/12/2004 8:45,0.56,3.66
12/12/2004 9:00,0.56,3.66
12/12/2004 9:15,0.56,3.66
12/12/2004 9:30,0.56,3.68
12/12/2004 9:45,0.57,3.72
12/12/2004 10:00,0.56,3.66
12/12/2004 10:15,0.56,3.62
12/12/2004 10:30,0.56,3.56
12/12/2004 10:45,0.56,3.5
12/12/2004 11:00,0.55,3.44
12/12/2004 11:15,0.55,3.38
12/12/2004 11:30,0.54,3.24
12/12/2004 11:45,0.54,3.2
12/12/2004 12:00,0.54,3.18
12/12/2004 12:15,0.54,3.1
12/12/2004 12:30,0.54,3.28
12/12/2004 12:45,0.55,3.44
12/12/2004 13:00,0.54,3.22
12/12/2004 13:15,0.54,3.22
12/12/2004 13:30,0.54,3.1
12/12/2004 13:45,0.54,3.14
12/12/2004 14:00,0.54,3.12
12/12/2004 14:15,0.53,3.04
12/12/2004 14:30,0.54,3.28
12/12/2004 14:45,0.55,3.42
12/12/2004 15:00,0.54,3.22
12/12/2004 15:15,0.54,3.24
12/12/2004 15:30,0.55,3.38
12/12/2004 15:45,0.55,3.46
12/12/2004 16:00,0.55,3.46
12/12/2004 16:15,0.55,3.46
12/12/2004 16:30,0.56,3.5
12/12/2004 16:45,0.56,3.58
12/12/2004 17:00,0.55,3.3
12/12/2004 17:15,0.54,3.2
12/12/2004 17:30,0.54,3.2
12/12/2004 17:45,0.54,3.26
12/12/2004 18:00,0.55,3.3
12/12/2004 18:15,0.54,3.28
12/12/2004 18:30,0.54,3.18
12/12/2004 18:45,0.55,3.32
12/12/2004 19:00,0.55,3.42
12/12/2004 19:15,0.55,3.38
12/12/2004 19:30,0.56,3.54
12/12/2004 19:45,0.56,3.5
12/12/2004 20:00,0.55,3.4
12/12/2004 20:15,0.55,3.36
12/12/2004 20:30,0.54,3.28
12/12/2004 20:45,0.54,3.26
12/12/2004 21:00,0.54,3.26
12/12/2004 21:15,0.54,3.24
12/12/2004 21:30,0.54,3.18
12/12/2004 21:45,0.54,3.22
12/12/2004 22:00,0.54,3.22
12/12/2004 22:15,0.54,3.22
12/12/2004 22:30,0.55,3.3
12/12/2004 22:45,0.54,3.28
12/12/2004 23:00,0.54,3.18
12/12/2004 23:15,0.54,3.12
12/12/2004 23:30,0.54,3.14
12/12/2004 23:45,0.54,3.16
12/13/2004 0:00,0.54,3.16
12/13/2004 0:15,0.54,3.2
12/13/2004 0:30,0.54,3.16
12/13/2004 0:45,0.53,3.06
12/13/2004 1:00,0.53,3.08
12/13/2004 1:15,0.54,3.1
12/13/2004 1:30,0.53,3.06
12/13/2004 1:45,0.53,3.06
12/13/2004 2:00,0.53,3
12/13/2004 2:15,0.53,3
12/13/2004 2:30,0.53,3.02
12/13/2004 2:45,0.54,3.1
12/13/2004 3:00,0.54,3.2
12/13/2004 3:15,0.54,3.1
12/13/2004 3:30,0.53,3.02
12/13/2004 3:45,0.53,2.98
12/13/2004 4:00,0.53,2.98
12/13/2004 4:15,0.53,2.98
12/13/2004 4:30,0.53,2.98
12/13/2004 4:45,0.53,2.95
12/13/2004 5:00,0.53,2.95
12/13/2004 5:15,0.53,2.95
12/13/2004 5:30,0.53,2.95
12/13/2004 5:45,0.53,2.95
12/13/2004 6:00,0.53,2.98
12/13/2004 6:15,0.53,2.95
12/13/2004 6:30,0.53,2.98
12/13/2004 6:45,0.53,2.92
12/13/2004 7:00,0.52,2.88
12/13/2004 7:15,0.52,2.9
12/13/2004 7:30,0.52,2.85
12/13/2004 7:45,0.52,2.87
12/13/2004 8:00,0.53,2.92
12/13/2004 8:15,0.52,2.88
12/13/2004 8:30,0.52,2.85
12/13/2004 8:45,0.52,2.9
12/13/2004 9:00,0.52,2.85
12/13/2004 9:15,0.52,2.75
12/13/2004 9:30,0.5,2.57
12/13/2004 9:45,0.49,2.32
12/13/2004 10:00,0.49,2.32
12/13/2004 10:15,0.49,2.37
12/13/2004 10:30,0.49,2.28
12/13/2004 10:45,0.48,2.15
12/13/2004 11:00,0.48,2.12
12/13/2004 11:15,0.46,1.9
12/13/2004 11:30,0.47,2.05
12/13/2004 11:45,0.48,2.15
12/13/2004 12:00,0.48,2.22
12/13/2004 12:15,0.49,2.3
12/13/2004 12:30,0.49,2.32
12/13/2004 12:45,0.49,2.35
12/13/2004 13:00,0.49,2.37
12/13/2004 13:15,0.49,2.32
12/13/2004 13:30,0.49,2.37
12/13/2004 13:45,0.5,2.42
12/13/2004 14:00,0.49,2.37
12/13/2004 14:15,0.5,2.55
12/13/2004 14:30,0.5,2.5
12/13/2004 14:45,0.5,2.52
12/13/2004 15:00,0.5,2.48
12/13/2004 15:15,0.5,2.43
12/13/2004 15:30,0.5,2.43
12/13/2004 15:45,0.49,2.33
12/13/2004 16:00,0.49,2.38
12/13/2004 16:15,0.49,2.4
12/13/2004 16:30,0.49,2.32
12/13/2004 16:45,0.49,2.3
12/13/2004 17:00,0.49,2.28
12/13/2004 17:15,0.48,2.2
12/13/2004 17:30,0.48,2.23
12/13/2004 17:45,0.54,3.1
12/13/2004 18:00,0.57,3.82
12/13/2004 18:15,0.59,4.13
12/13/2004 18:30,0.58,4.05
12/13/2004 18:45,0.59,4.35
12/13/2004 19:00,0.59,4.2
12/13/2004 19:15,0.58,3.9
12/13/2004 19:30,0.57,3.74
12/13/2004 19:45,0.57,3.72
12/13/2004 20:00,0.56,3.6
12/13/2004 20:15,0.56,3.5
12/13/2004 20:30,0.56,3.52
12/13/2004 20:45,0.56,3.52
12/13/2004 21:00,0.55,3.4
12/13/2004 21:15,0.55,3.3
12/13/2004 21:30,0.54,3.16
12/13/2004 21:45,0.54,3.2
12/13/2004 22:00,0.54,3.2
12/13/2004 22:15,0.54,3.12
12/13/2004 22:30,0.54,3.1
12/13/2004 22:45,0.54,3.1
12/13/2004 23:00,0.53,3.02
12/13/2004 23:15,0.53,2.92
12/13/2004 23:30,0.53,3
12/13/2004 23:45,0.53,3.02
12/14/2004 0:00,0.53,2.97
12/14/2004 0:15,0.53,3
12/14/2004 0:30,0.53,2.95
12/14/2004 0:45,0.52,2.9
12/14/2004 1:00,0.52,2.87
12/14/2004 1:15,0.52,2.9
12/14/2004 1:30,0.52,2.87
12/14/2004 1:45,0.52,2.87
12/14/2004 2:00,0.52,2.87
12/14/2004 2:15,0.53,2.95
12/14/2004 2:30,0.52,2.85
12/14/2004 2:45,0.52,2.85
12/14/2004 3:00,0.52,2.83
12/14/2004 3:15,0.52,2.78
12/14/2004 3:30,0.52,2.78
12/14/2004 3:45,0.52,2.83
12/14/2004 4:00,0.52,2.83
12/14/2004 4:15,0.52,2.8
12/14/2004 4:30,0.52,2.8
12/14/2004 4:45,0.52,2.8
12/14/2004 5:00,0.52,2.77
12/14/2004 5:15,0.52,2.8
12/14/2004 5:30,0.52,2.8
12/14/2004 5:45,0.52,2.77
12/14/2004 6:00,0.52,2.77
12/14/2004 6:15,0.52,2.8
12/14/2004 6:30,0.52,2.82
12/14/2004 6:45,0.52,2.78
12/14/2004 7:00,0.52,2.77
12/14/2004 7:15,0.52,2.8
12/14/2004 7:30,0.52,2.8
12/14/2004 7:45,0.52,2.8
12/14/2004 8:00,0.52,2.78
12/14/2004 8:15,0.52,2.77
12/14/2004 8:30,0.52,2.75
12/14/2004 8:45,0.51,2.73
12/14/2004 9:00,0.51,2.72
12/14/2004 9:15,0.51,2.7
12/14/2004 9:30,0.51,2.68
12/14/2004 9:45,0.51,2.62
12/14/2004 10:00,0.51,2.63
12/14/2004 10:15,0.5,2.55
12/14/2004 10:30,0.5,2.55
12/14/2004 10:45,0.5,2.42
12/14/2004 11:00,0.49,2.38
12/14/2004 11:15,0.49,2.25
12/14/2004 11:30,0.49,2.3
12/14/2004 11:45,0.49,2.27
12/14/2004 12:00,0.49,2.32
12/14/2004 12:15,0.49,2.28
12/14/2004 12:30,0.49,2.32
12/14/2004 12:45,0.48,2.1
12/14/2004 13:00,0.48,2.17
12/14/2004 13:15,0.48,2.1
12/14/2004 13:30,0.47,1.99
12/14/2004 13:45,0.47,2.03
12/14/2004 14:00,0.46,1.87
12/14/2004 14:15,0.47,2.07
12/14/2004 14:30,0.48,2.08
12/14/2004 14:45,0.48,2.12
12/14/2004 15:00,0.49,2.32
12/14/2004 15:15,0.49,2.33
12/14/2004 15:30,0.5,2.42
12/14/2004 15:45,0.5,2.43
12/14/2004 16:00,0.53,3.08
12/14/2004 16:15,0.58,4
12/14/2004 16:30,0.59,4.28
12/14/2004 16:45,0.6,4.38
12/14/2004 17:00,0.6,4.4
12/14/2004 17:15,0.6,4.4
12/14/2004 17:30,0.6,4.43
12/14/2004 17:45,0.6,4.38
12/14/2004 18:00,0.6,4.38
12/14/2004 18:15,0.6,4.5
12/14/2004 18:30,0.6,4.48
12/14/2004 18:45,0.6,4.43
12/14/2004 19:00,0.6,4.45
12/14/2004 19:15,0.6,4.55
12/14/2004 19:30,0.6,4.48
12/14/2004 19:45,0.6,4.5
12/14/2004 20:00,0.6,4.43
12/14/2004 20:15,0.6,4.48
12/14/2004 20:30,0.59,4.15
12/14/2004 20:45,0.58,4.03
12/14/2004 21:00,0.58,4.03
12/14/2004 21:15,0.58,4
12/14/2004 21:30,0.59,4.2
12/14/2004 21:45,0.59,4.28
12/14/2004 22:00,0.6,4.4
12/14/2004 22:15,0.59,4.3
12/14/2004 22:30,0.59,4.25
12/14/2004 22:45,0.59,4.28
12/14/2004 23:00,0.59,4.2
12/14/2004 23:15,0.59,4.28
12/14/2004 23:30,0.59,4.28
12/14/2004 23:45,0.59,4.33
12/15/2004 0:00,0.59,4.25
12/15/2004 0:15,0.59,4.2
12/15/2004 0:30,0.59,4.2
12/15/2004 0:45,0.59,4.18
12/15/2004 1:00,0.59,4.18
12/15/2004 1:15,0.59,4.13
12/15/2004 1:30,0.58,4.1
12/15/2004 1:45,0.59,4.18
12/15/2004 2:00,0.59,4.25
12/15/2004 2:15,0.59,4.23
12/15/2004 2:30,0.59,4.25
12/15/2004 2:45,0.59,4.28
12/15/2004 3:00,0.59,4.25
12/15/2004 3:15,0.59,4.28
12/15/2004 3:30,0.59,4.28
12/15/2004 3:45,0.59,4.23
12/15/2004 4:00,0.59,4.3
12/15/2004 4:15,0.59,4.3
12/15/2004 4:30,0.59,4.35
12/15/2004 4:45,0.59,4.33
12/15/2004 5:00,0.59,4.25
12/15/2004 5:15,0.58,4.1
12/15/2004 5:30,0.59,4.13
12/15/2004 5:45,0.59,4.2
12/15/2004 6:00,0.59,4.3
12/15/2004 6:15,0.59,4.28
12/15/2004 6:30,0.59,4.28
12/15/2004 6:45,0.59,4.28
12/15/2004 7:00,0.59,4.23
12/15/2004 7:15,0.59,4.3
12/15/2004 7:30,0.59,4.3
12/15/2004 7:45,0.6,4.43
12/15/2004 8:00,0.59,4.3
12/15/2004 8:15,0.59,4.3
12/15/2004 8:30,0.59,4.3
12/15/2004 8:45,0.59,4.23
12/15/2004 9:00,0.59,4.13
12/15/2004 9:15,0.59,4.23
12/15/2004 9:30,0.58,4.1
12/15/2004 9:45,0.59,4.2
12/15/2004 10:00,0.59,4.15
12/15/2004 10:15,0.59,4.13
12/15/2004 10:30,0.58,3.96
12/15/2004 10:45,0.59,4.2
12/15/2004 11:00,0.59,4.2
12/15/2004 11:15,0.58,3.94
12/15/2004 11:30,0.58,3.94
12/15/2004 11:45,0.57,3.84
12/15/2004 12:00,0.54,3.22
12/15/2004 12:15,0.53,2.95
12/15/2004 12:30,0.52,2.87
12/15/2004 12:45,0.53,2.95
12/15/2004 13:00,0.55,3.44
12/15/2004 13:15,0.57,3.74
12/15/2004 13:30,0.57,3.74
12/15/2004 13:45,0.57,3.86
12/15/2004 14:00,0.58,4.08
12/15/2004 14:15,0.58,3.96
12/15/2004 14:30,0.58,4
12/15/2004 14:45,0.58,3.92
12/15/2004 15:00,0.58,3.92
12/15/2004 15:15,0.58,3.92
12/15/2004 15:30,0.57,3.88
12/15/2004 15:45,0.57,3.8
12/15/2004 16:00,0.59,4.13
12/15/2004 16:15,0.59,4.28
12/15/2004 16:30,0.58,3.98
12/15/2004 16:45,0.58,3.94
12/15/2004 17:00,0.58,3.9
12/15/2004 17:15,0.57,3.82
12/15/2004 17:30,0.56,3.66
12/15/2004 17:45,0.58,3.9
12/15/2004 18:00,0.59,4.35
12/15/2004 18:15,0.6,4.48